Date String (YYYY-MM-DD hh:mm:ss) UTC,Instrument flags,Ambient pressure (hPa),Sample flow (lpm),Bypass flow (lpm),Sample temperature (°C),Ambient temperature (°C),ASC tube jacket temperature (°C),LED temperature (°C),Box temperature (°C),Sample RH (%),Span deviation,Mass concentration (μg/m³),Mass concentration (μg/m³),Mass concentration (μg/m³)
DateTimeUTC,F1_M11,P_M11,Q1_M11,Q2_M11,T1_M11,T2_M11,T3_M11,T4_M11,T5_M11,U1_M11,ZSPAN_M11,X0_M11,X2_M11,X1_M11
2022-05-12 05:00:00,,0819.9,5.00,0.00,30.0,29.0,00.0,38.7,31.8,20.3,0002.0,0027.65,0008.94,0005.79
2022-05-12 05:01:00,,0819.9,5.00,0.00,30.0,29.0,00.0,38.8,31.7,20.4,0001.5,0027.52,0008.98,0005.83
2022-05-12 05:02:00,,0819.9,5.00,0.00,30.0,29.0,00.0,38.8,31.8,20.6,0001.4,0027.55,0009.06,0005.87
2022-05-12 05:03:00,,0819.9,5.01,0.00,30.0,29.1,00.0,38.8,31.8,20.7,0001.9,0027.89,0009.09,0005.90
2022-05-12 05:04:00,,0819.9,5.01,0.00,30.0,29.1,00.0,38.8,31.8,20.9,0001.8,0027.98,0009.04,0005.92
2022-05-12 05:05:00,,0820.0,5.00,0.00,30.0,29.1,00.0,38.8,31.8,21.0,0001.9,0029.03,0008.98,0005.95
2022-05-12 05:06:00,,0819.9,5.00,0.00,30.0,29.1,00.0,38.9,31.9,21.1,0002.3,0030.53,0008.99,0005.98
2022-05-12 05:07:00,,0820.0,4.99,0.00,30.0,29.1,00.0,38.9,31.9,21.2,0002.6,0029.59,0008.97,0006.00
2022-05-12 05:08:00,,0820.0,5.00,0.00,30.1,28.9,00.0,38.9,31.8,21.3,0002.6,0029.74,0009.04,0006.02
2022-05-12 05:09:00,,0819.9,5.01,0.00,30.0,26.7,00.0,38.9,31.2,21.6,0002.0,0029.60,0009.03,0006.03
2022-05-12 05:10:00,,0819.9,5.00,0.00,29.8,25.7,00.0,38.8,31.1,21.8,0001.3,0029.58,0008.97,0006.03
2022-05-12 05:11:00,,0819.9,4.99,0.00,29.7,25.9,00.0,38.8,31.1,22.0,0001.3,0028.66,0008.98,0006.04
2022-05-12 05:12:00,,0819.9,5.00,0.00,29.6,26.4,00.0,38.7,31.1,22.3,0001.2,0027.19,0008.87,0006.04
2022-05-12 05:13:00,,0819.9,5.01,0.00,29.6,26.8,00.0,38.7,31.2,22.6,0000.7,0026.89,0008.88,0006.05
2022-05-12 05:14:00,,0819.9,5.00,0.00,29.6,27.2,00.0,38.7,31.3,22.7,-000.1,0027.46,0008.91,0006.07
2022-05-12 05:15:00,,0819.9,5.00,0.00,29.6,27.5,00.0,38.6,31.3,22.8,0000.1,0027.29,0008.99,0006.10
2022-05-12 05:16:00,,0819.9,5.00,0.00,29.6,27.7,00.0,38.6,31.3,22.9,0000.2,0026.77,0009.07,0006.11
2022-05-12 05:17:00,,0819.9,5.00,0.00,29.6,27.9,00.0,38.6,31.4,23.0,0000.2,0024.44,0009.11,0006.11
2022-05-12 05:18:00,,0819.9,5.01,0.00,29.6,28.1,00.0,38.6,31.4,23.0,0000.4,0024.42,0009.14,0006.12
2022-05-12 05:19:00,,0819.9,5.00,0.00,29.7,28.2,00.0,38.6,31.4,23.1,0000.3,0024.33,0009.23,0006.13
2022-05-12 05:20:00,,0819.9,5.01,0.00,29.7,28.3,00.0,38.6,31.4,23.2,0000.2,0024.96,0009.30,0006.16
2022-05-12 05:21:00,,0819.9,5.00,0.00,29.7,28.4,00.0,38.6,31.5,23.7,0000.1,0025.63,0009.38,0006.18
2022-05-12 05:22:00,,0819.9,5.00,0.00,29.7,28.5,00.0,38.6,31.5,23.9,-000.1,0026.47,0009.51,0006.22
2022-05-12 05:23:00,,0819.9,5.00,0.00,29.7,28.5,00.0,38.6,31.5,24.0,-000.3,0027.65,0009.56,0006.25
2022-05-12 05:24:00,,0820.0,5.01,0.00,29.7,28.6,00.0,38.6,31.5,24.0,-000.2,0029.39,0009.66,0006.27
2022-05-12 05:25:00,,0819.9,5.00,0.00,29.7,28.6,00.0,38.6,31.5,24.3,0000.1,0029.07,0009.66,0006.28
2022-05-12 05:26:00,,0820.0,4.99,0.00,29.7,28.6,00.0,38.6,31.5,24.6,0000.3,0029.02,0009.67,0006.30
2022-05-12 05:27:00,,0820.1,4.99,0.00,29.8,28.7,00.0,38.7,31.6,24.5,0000.1,0028.84,0009.60,0006.30
2022-05-12 05:28:00,,0820.2,4.99,0.00,29.8,28.7,00.0,38.7,31.6,24.7,0000.3,0030.36,0009.67,0006.36
2022-05-12 05:29:00,,0820.2,4.99,0.00,29.8,28.7,00.0,38.7,31.6,25.0,-000.0,0030.71,0009.79,0006.42
2022-05-12 05:30:00,,0820.3,5.00,0.00,29.8,28.7,00.0,38.7,31.6,25.1,-000.5,0030.88,0009.79,0006.46
2022-05-12 05:31:00,,0820.3,5.01,0.00,29.8,28.8,00.0,38.7,31.6,25.3,-000.6,0031.16,0009.73,0006.49
2022-05-12 05:32:00,,0820.2,5.00,0.00,29.8,28.8,00.0,38.7,31.6,25.3,-000.7,0030.67,0009.72,0006.52
2022-05-12 05:33:00,,0820.2,5.01,0.00,29.8,28.8,00.0,38.7,31.7,25.2,-000.4,0029.72,0009.75,0006.55
2022-05-12 05:34:00,,0820.2,5.01,0.00,29.8,28.8,00.0,38.7,31.7,25.2,-000.3,0030.01,0009.85,0006.57
2022-05-12 05:35:00,,0820.3,4.98,0.00,29.8,28.8,00.0,38.7,31.7,25.2,-000.3,0030.15,0009.86,0006.60
2022-05-12 05:36:00,,0820.3,5.00,0.00,29.8,28.9,00.0,38.7,31.7,25.2,-000.9,0029.68,0009.90,0006.61
2022-05-12 05:37:00,,0820.2,5.00,0.00,29.8,28.9,00.0,38.8,31.7,25.3,-001.1,0030.18,0009.91,0006.64
2022-05-12 05:38:00,,0820.3,4.99,0.00,29.9,28.9,00.0,38.8,31.7,25.2,-001.3,0030.16,0009.99,0006.65
2022-05-12 05:39:00,,0820.2,5.00,0.00,29.9,28.9,00.0,38.8,31.7,25.1,-001.5,0029.31,0009.98,0006.67
2022-05-12 05:40:00,,0820.2,4.99,0.00,29.9,28.9,00.0,38.8,31.7,25.1,-001.3,0028.98,0009.98,0006.67
2022-05-12 05:41:00,,0820.1,5.00,0.00,29.9,28.9,00.0,38.8,31.7,25.1,-000.7,0029.43,0010.04,0006.67
2022-05-12 05:42:00,,0820.0,5.01,0.00,29.9,28.9,00.0,38.8,31.8,25.3,-000.3,0029.16,0010.13,0006.69
2022-05-12 05:43:00,,0820.0,4.99,0.00,29.9,29.0,00.0,38.8,31.8,25.4,-000.1,0029.84,0010.18,0006.70
2022-05-12 05:44:00,,0820.0,4.99,0.00,29.9,29.0,00.0,38.8,31.7,25.4,-000.4,0029.81,0010.14,0006.70
2022-05-12 05:45:00,,0819.9,4.99,0.00,29.9,29.0,00.0,38.8,31.7,25.4,-000.8,0029.02,0010.12,0006.70
2022-05-12 05:46:00,,0820.0,5.00,0.00,30.0,29.0,00.0,38.8,31.8,25.4,-000.8,0027.49,0010.07,0006.70
2022-05-12 05:47:00,,0819.9,5.00,0.00,30.0,29.0,00.0,38.8,31.7,25.4,-000.5,0027.71,0010.06,0006.71
2022-05-12 05:48:00,,0820.0,5.00,0.00,30.0,29.0,00.0,38.9,31.8,25.3,-000.6,0027.43,0010.11,0006.71
2022-05-12 05:49:00,,0819.9,5.01,0.00,30.0,29.1,00.0,38.9,31.7,25.3,-000.3,0027.40,0010.17,0006.73
2022-05-12 05:50:00,,0819.9,5.00,0.00,30.0,29.1,00.0,38.9,31.8,25.3,-000.4,0026.90,0010.14,0006.73
2022-05-12 05:51:00,,0819.9,4.99,0.00,30.0,29.1,00.0,38.9,31.8,25.2,-000.7,0027.81,0010.15,0006.76
2022-05-12 05:52:00,,0819.9,4.99,0.00,30.0,29.0,00.0,38.9,31.8,25.3,-001.2,0027.25,0010.15,0006.76
2022-05-12 05:53:00,,0819.9,5.01,0.00,30.0,27.4,00.0,38.9,31.4,25.3,-001.4,0026.38,0010.19,0006.77
2022-05-12 05:54:00,,0819.9,4.99,0.00,29.8,25.8,00.0,38.9,31.0,25.5,-001.3,0026.86,0010.20,0006.79
2022-05-12 05:55:00,,0819.9,5.01,0.00,29.7,25.8,00.0,38.8,31.0,25.7,-001.2,0027.84,0010.24,0006.80
2022-05-12 05:56:00,,0819.9,4.99,0.00,29.6,26.2,00.0,38.7,31.1,25.9,-000.9,0027.67,0010.27,0006.83
2022-05-12 05:57:00,,0819.9,5.00,0.00,29.6,26.7,00.0,38.7,31.1,25.9,-000.8,0027.72,0010.30,0006.84
2022-05-12 05:58:00,,0819.9,4.99,0.00,29.6,27.1,00.0,38.6,31.2,26.0,-000.7,0027.97,0010.42,0006.86
2022-05-12 05:59:00,,0819.9,5.02,0.00,29.6,27.4,00.0,38.6,31.2,26.0,-000.8,0030.06,0010.45,0006.87
